N125DZ KRNO-KLGB

Flight info

Callsign N125DZ
Flight time 1h 4m
Altitude 45000
Route DARBI FRA REBRG PCIFC3
Aircraft C750/M-SBDE3FGHRWXY/S

Departure

Time 2026-04-26 02:04
Airport Reno Tahoe International Airport (KRNO)

Arrival

Time 2026-04-26 03:08
Airport Long Beach International Airport (KLGB)
Time Latitude Longitude Altitude Speed Heading
2026-04-26 01:48 39.50134 -119.76480 4402 ft 0 kts 94°
2026-04-26 01:59 39.50134 -119.76479 4402 ft 1 kts 95°
2026-04-26 02:00 39.50131 -119.76474 4402 ft 2 kts 124°
2026-04-26 02:00 39.50114 -119.76480 4402 ft 6 kts 252°
2026-04-26 02:00 39.50096 -119.76574 4400 ft 12 kts 209°
2026-04-26 02:00 39.49992 -119.76581 4403 ft 18 kts 181°
2026-04-26 02:01 39.49848 -119.76582 4407 ft 23 kts 180°
2026-04-26 02:01 39.49741 -119.76572 4408 ft 10 kts 137°
2026-04-26 02:01 39.49736 -119.76455 4409 ft 17 kts 89°
2026-04-26 02:01 39.49735 -119.76261 4404 ft 27 kts 90°
2026-04-26 02:02 39.49733 -119.76026 4400 ft 28 kts 90°
2026-04-26 02:02 39.49733 -119.75833 4397 ft 17 kts 89°
2026-04-26 02:02 39.49716 -119.75743 4394 ft 5 kts 147°
2026-04-26 02:02 39.49675 -119.75734 4393 ft 8 kts 178°
2026-04-26 02:03 39.49618 -119.75769 4394 ft 8 kts 265°
2026-04-26 02:03 39.49618 -119.75819 4395 ft 32 kts 270°
2026-04-26 02:03 39.49622 -119.76525 4409 ft 116 kts 270°
2026-04-26 02:03 39.49634 -119.77682 4881 ft 122 kts 272°
2026-04-26 02:04 39.49641 -119.78807 5606 ft 133 kts 270°
2026-04-26 02:04 39.49664 -119.79970 6491 ft 116 kts 269°
2026-04-26 02:04 39.49717 -119.80957 7234 ft 120 kts 277°
2026-04-26 02:04 39.49609 -119.82137 7543 ft 149 kts 245°
2026-04-26 02:05 39.48746 -119.83042 7985 ft 177 kts 202°
2026-04-26 02:05 39.47420 -119.83009 8391 ft 204 kts 174°
2026-04-26 02:05 39.45930 -119.82621 8634 ft 236 kts 171°
2026-04-26 02:05 39.44231 -119.82179 8923 ft 268 kts 173°
2026-04-26 02:06 39.42309 -119.81728 9424 ft 289 kts 174°
2026-04-26 02:06 39.40284 -119.81563 10373 ft 289 kts 181°
2026-04-26 02:06 39.38226 -119.81549 10696 ft 312 kts 180°
2026-04-26 02:06 39.35961 -119.81409 10862 ft 339 kts 176°
2026-04-26 02:07 39.33540 -119.81154 11217 ft 354 kts 176°
2026-04-26 02:07 39.31084 -119.80936 12033 ft 355 kts 177°
2026-04-26 02:07 39.28601 -119.80770 12731 ft 360 kts 177°
2026-04-26 02:07 39.26083 -119.80590 13444 ft 363 kts 176°
2026-04-26 02:08 39.23542 -119.80378 14074 ft 367 kts 176°
2026-04-26 02:08 39.20976 -119.80169 14699 ft 371 kts 176°
2026-04-26 02:08 39.18374 -119.79971 15228 ft 377 kts 176°
2026-04-26 02:08 39.15776 -119.79773 15852 ft 380 kts 176°
2026-04-26 02:09 39.13120 -119.79565 16475 ft 385 kts 176°
2026-04-26 02:09 39.10436 -119.79353 17141 ft 388 kts 176°
2026-04-26 02:09 39.07720 -119.79141 17757 ft 394 kts 176°
2026-04-26 02:09 39.04975 -119.78930 18422 ft 396 kts 176°
2026-04-26 02:10 39.02212 -119.78715 19078 ft 399 kts 176°
2026-04-26 02:10 38.99437 -119.78499 19808 ft 400 kts 176°
2026-04-26 02:10 38.96652 -119.78283 20512 ft 402 kts 176°
2026-04-26 02:10 38.93853 -119.78066 21241 ft 403 kts 176°
2026-04-26 02:11 38.91046 -119.77849 21954 ft 405 kts 176°
2026-04-26 02:11 38.88220 -119.77630 22652 ft 407 kts 177°
2026-04-26 02:11 38.85384 -119.77411 23303 ft 410 kts 177°
2026-04-26 02:11 38.82554 -119.77193 23848 ft 413 kts 177°
2026-04-26 02:12 38.79668 -119.76970 24402 ft 417 kts 177°
2026-04-26 02:12 38.76764 -119.76746 24960 ft 419 kts 177°
2026-04-26 02:12 38.73843 -119.76521 25467 ft 422 kts 177°
2026-04-26 02:12 38.70893 -119.76294 25996 ft 425 kts 177°
2026-04-26 02:13 38.67930 -119.76065 26535 ft 428 kts 178°
2026-04-26 02:13 38.64947 -119.75836 27058 ft 431 kts 178°
2026-04-26 02:13 38.61935 -119.75605 27598 ft 434 kts 178°
2026-04-26 02:13 38.58952 -119.75376 28179 ft 436 kts 178°
2026-04-26 02:14 38.55914 -119.75143 28729 ft 439 kts 178°
2026-04-26 02:14 38.52855 -119.74909 29280 ft 442 kts 178°
2026-04-26 02:14 38.49773 -119.74673 29810 ft 445 kts 178°
2026-04-26 02:14 38.46670 -119.74436 30237 ft 448 kts 178°
2026-04-26 02:15 38.43546 -119.74197 30720 ft 450 kts 178°
2026-04-26 02:15 38.40418 -119.73957 31322 ft 449 kts 178°
2026-04-26 02:15 38.37296 -119.73719 31886 ft 449 kts 178°
2026-04-26 02:15 38.34184 -119.73482 32602 ft 446 kts 178°
2026-04-26 02:16 38.31092 -119.73246 33371 ft 442 kts 178°
2026-04-26 02:16 38.28039 -119.72945 34054 ft 439 kts 176°
2026-04-26 02:16 38.25039 -119.72587 34613 ft 439 kts 177°
2026-04-26 02:16 38.21996 -119.72236 35105 ft 439 kts 177°
2026-04-26 02:17 38.18950 -119.71891 35635 ft 439 kts 177°
2026-04-26 02:17 38.15906 -119.71542 36182 ft 439 kts 178°
2026-04-26 02:17 38.12856 -119.71185 36694 ft 440 kts 178°
2026-04-26 02:17 38.09805 -119.70832 37232 ft 440 kts 178°
2026-04-26 02:18 38.06753 -119.70483 37767 ft 440 kts 178°
2026-04-26 02:18 38.03699 -119.70134 38332 ft 440 kts 178°
2026-04-26 02:18 38.00641 -119.69781 38797 ft 440 kts 178°
2026-04-26 02:18 37.97632 -119.69436 39276 ft 439 kts 179°
2026-04-26 02:19 37.94581 -119.69086 39653 ft 441 kts 179°
2026-04-26 02:19 37.91522 -119.68735 40012 ft 442 kts 179°
2026-04-26 02:19 37.88449 -119.68382 40405 ft 443 kts 179°
2026-04-26 02:19 37.85378 -119.68031 40801 ft 443 kts 179°
2026-04-26 02:20 37.82304 -119.67680 41184 ft 444 kts 179°
2026-04-26 02:20 37.79224 -119.67328 41573 ft 444 kts 179°
2026-04-26 02:20 37.76146 -119.66976 41973 ft 444 kts 179°
2026-04-26 02:20 37.73105 -119.66630 42358 ft 445 kts 179°
2026-04-26 02:21 37.70021 -119.66278 42726 ft 445 kts 179°
2026-04-26 02:21 37.66930 -119.65926 43119 ft 446 kts 179°
2026-04-26 02:21 37.63841 -119.65575 43498 ft 446 kts 179°
2026-04-26 02:21 37.60745 -119.65223 43858 ft 447 kts 179°
2026-04-26 02:22 37.57648 -119.64870 44240 ft 447 kts 179°
2026-04-26 02:22 37.54545 -119.64518 44601 ft 447 kts 179°
2026-04-26 02:22 37.51448 -119.64168 44882 ft 447 kts 179°
2026-04-26 02:23 37.45198 -119.63463 44888 ft 461 kts 179°
2026-04-26 02:23 37.38715 -119.62728 44898 ft 474 kts 179°
2026-04-26 02:24 37.32047 -119.61976 44898 ft 485 kts 179°
2026-04-26 02:24 37.25314 -119.61214 44893 ft 486 kts 179°
2026-04-26 02:25 37.18605 -119.60461 44889 ft 488 kts 179°
2026-04-26 02:25 37.11838 -119.59701 44887 ft 488 kts 179°
2026-04-26 02:26 37.05097 -119.59636 44891 ft 484 kts 185°
2026-04-26 02:26 36.98362 -119.59757 44879 ft 483 kts 185°
2026-04-26 02:27 36.91667 -119.59866 44882 ft 480 kts 185°
2026-04-26 02:27 36.84975 -119.59990 44887 ft 481 kts 185°
2026-04-26 02:28 36.78279 -119.60100 44888 ft 481 kts 185°
2026-04-26 02:28 36.71571 -119.60220 44887 ft 481 kts 185°
2026-04-26 02:29 36.64918 -119.60332 44884 ft 481 kts 185°
2026-04-26 02:29 36.58224 -119.60448 44881 ft 481 kts 185°
2026-04-26 02:30 36.51569 -119.60560 44885 ft 476 kts 185°
2026-04-26 02:30 36.44931 -119.60677 44887 ft 477 kts 185°
2026-04-26 02:31 36.39371 -119.60770 44890 ft 477 kts 185°
2026-04-26 02:31 36.32777 -119.60884 44897 ft 476 kts 185°
2026-04-26 02:32 36.26127 -119.60997 44898 ft 477 kts 185°
2026-04-26 02:32 36.19480 -119.61110 44897 ft 477 kts 185°
2026-04-26 02:33 36.12889 -119.61222 44874 ft 477 kts 186°
2026-04-26 02:33 36.06223 -119.61336 44894 ft 478 kts 186°
2026-04-26 02:34 35.99561 -119.61452 44891 ft 477 kts 186°
2026-04-26 02:34 35.93034 -119.62527 44895 ft 472 kts 194°
2026-04-26 02:35 35.86580 -119.63824 44900 ft 473 kts 194°
2026-04-26 02:35 35.80080 -119.65153 44905 ft 472 kts 194°
2026-04-26 02:36 35.73623 -119.66459 44633 ft 460 kts 194°
2026-04-26 02:36 35.70494 -119.66975 44169 ft 450 kts 189°
2026-04-26 02:36 35.67384 -119.66978 43685 ft 444 kts 182°
2026-04-26 02:36 35.64331 -119.66470 43243 ft 443 kts 174°
2026-04-26 02:37 35.61347 -119.65456 42822 ft 448 kts 167°
2026-04-26 02:37 35.58444 -119.63962 42438 ft 456 kts 162°
2026-04-26 02:37 35.55545 -119.62350 42085 ft 458 kts 162°
2026-04-26 02:37 35.52628 -119.60747 41733 ft 458 kts 162°
2026-04-26 02:38 35.49718 -119.59146 41369 ft 459 kts 162°
2026-04-26 02:38 35.46845 -119.57556 41004 ft 459 kts 162°
2026-04-26 02:38 35.43933 -119.55947 40653 ft 458 kts 162°
2026-04-26 02:38 35.41024 -119.54347 40305 ft 458 kts 162°
2026-04-26 02:39 35.38110 -119.52745 39948 ft 457 kts 162°
2026-04-26 02:39 35.35213 -119.51151 39611 ft 457 kts 162°
2026-04-26 02:39 35.32307 -119.49554 39279 ft 457 kts 162°
2026-04-26 02:39 35.29402 -119.47959 38930 ft 457 kts 162°
2026-04-26 02:40 35.26498 -119.46367 38606 ft 459 kts 162°
2026-04-26 02:40 35.23585 -119.44769 38215 ft 458 kts 162°
2026-04-26 02:40 35.20669 -119.43171 37816 ft 458 kts 162°
2026-04-26 02:40 35.17802 -119.41602 37432 ft 458 kts 162°
2026-04-26 02:41 35.14888 -119.40009 37051 ft 458 kts 162°
2026-04-26 02:41 35.11974 -119.38417 36675 ft 458 kts 162°
2026-04-26 02:41 35.09065 -119.36828 36283 ft 458 kts 162°
2026-04-26 02:41 35.06151 -119.35238 35929 ft 458 kts 162°
2026-04-26 02:42 35.03238 -119.33650 35570 ft 458 kts 162°
2026-04-26 02:42 35.00326 -119.32064 35217 ft 458 kts 162°
2026-04-26 02:42 34.97451 -119.30499 34883 ft 458 kts 162°
2026-04-26 02:42 34.94544 -119.28917 34532 ft 457 kts 162°
2026-04-26 02:43 34.88728 -119.25759 33849 ft 457 kts 162°
2026-04-26 02:43 34.85821 -119.24182 33429 ft 455 kts 162°
2026-04-26 02:43 34.82927 -119.22606 33033 ft 455 kts 162°
2026-04-26 02:44 34.80032 -119.21042 32652 ft 456 kts 162°
2026-04-26 02:44 34.77127 -119.19473 32272 ft 456 kts 162°
2026-04-26 02:44 34.74221 -119.17898 31902 ft 457 kts 162°
2026-04-26 02:44 34.71366 -119.16143 31521 ft 461 kts 158°
2026-04-26 02:45 34.68530 -119.14318 31163 ft 459 kts 158°
2026-04-26 02:45 34.65778 -119.12562 30928 ft 435 kts 159°
2026-04-26 02:45 34.63091 -119.10875 30930 ft 447 kts 159°
2026-04-26 02:45 34.60276 -119.09112 30940 ft 455 kts 159°
2026-04-26 02:46 34.57559 -119.07360 30937 ft 436 kts 158°
2026-04-26 02:46 34.54870 -119.05623 30933 ft 438 kts 159°
2026-04-26 02:46 34.49488 -119.02137 30940 ft 440 kts 159°
2026-04-26 02:47 34.44095 -118.98654 30951 ft 438 kts 159°
2026-04-26 02:47 34.38728 -118.95072 30943 ft 438 kts 158°
2026-04-26 02:48 34.33434 -118.91562 30956 ft 436 kts 159°
2026-04-26 02:48 34.28098 -118.88029 30940 ft 437 kts 159°
2026-04-26 02:49 34.22750 -118.84566 30919 ft 431 kts 164°
2026-04-26 02:49 34.17108 -118.82318 30945 ft 426 kts 170°
2026-04-26 02:50 34.11485 -118.80058 30914 ft 424 kts 170°
2026-04-26 02:50 34.08681 -118.78952 30348 ft 423 kts 171°
2026-04-26 02:50 34.05932 -118.77873 29563 ft 408 kts 171°
2026-04-26 02:51 34.03275 -118.76845 28731 ft 394 kts 171°
2026-04-26 02:51 34.00727 -118.75867 27918 ft 383 kts 171°
2026-04-26 02:51 33.98222 -118.74897 27126 ft 374 kts 171°
2026-04-26 02:51 33.95774 -118.73947 26356 ft 365 kts 171°
2026-04-26 02:52 33.93377 -118.73021 25604 ft 357 kts 171°
2026-04-26 02:52 33.91030 -118.72116 24830 ft 352 kts 172°
2026-04-26 02:52 33.88708 -118.71221 24012 ft 349 kts 171°
2026-04-26 02:52 33.86396 -118.70330 23146 ft 347 kts 171°
2026-04-26 02:53 33.84108 -118.69447 22206 ft 344 kts 171°
2026-04-26 02:53 33.81834 -118.68571 21291 ft 341 kts 170°
2026-04-26 02:53 33.79608 -118.67713 20418 ft 339 kts 170°
2026-04-26 02:53 33.77363 -118.66849 19556 ft 337 kts 169°
2026-04-26 02:54 33.75134 -118.65999 18637 ft 334 kts 170°
2026-04-26 02:54 33.72870 -118.65559 17581 ft 326 kts 181°
2026-04-26 02:54 33.70607 -118.65304 16546 ft 322 kts 180°
2026-04-26 02:54 33.68425 -118.65018 15542 ft 319 kts 180°
2026-04-26 02:55 33.66217 -118.64727 14568 ft 318 kts 180°
2026-04-26 02:55 33.64016 -118.64446 13605 ft 317 kts 180°
2026-04-26 02:55 33.61875 -118.63983 12524 ft 312 kts 168°
2026-04-26 02:55 33.59976 -118.62786 11478 ft 314 kts 149°
2026-04-26 02:56 33.58429 -118.60897 10569 ft 314 kts 129°
2026-04-26 02:56 33.57347 -118.58584 10093 ft 316 kts 120°
2026-04-26 02:56 33.56384 -118.56320 9661 ft 298 kts 120°
2026-04-26 02:56 33.55454 -118.54156 9331 ft 286 kts 120°
2026-04-26 02:57 33.54542 -118.52057 9066 ft 281 kts 120°
2026-04-26 02:57 33.53643 -118.49986 8775 ft 280 kts 120°
2026-04-26 02:57 33.52752 -118.47921 8462 ft 277 kts 120°
2026-04-26 02:57 33.52133 -118.45742 8049 ft 279 kts 97°
2026-04-26 02:58 33.52075 -118.43437 7741 ft 276 kts 91°
2026-04-26 02:58 33.52040 -118.41159 7460 ft 275 kts 92°
2026-04-26 02:58 33.51976 -118.38875 7177 ft 273 kts 93°
2026-04-26 02:58 33.51909 -118.36603 6893 ft 272 kts 92°
2026-04-26 02:59 33.51853 -118.34343 6599 ft 269 kts 92°
2026-04-26 02:59 33.52126 -118.32151 6257 ft 268 kts 70°
2026-04-26 02:59 33.52808 -118.30079 6010 ft 267 kts 66°
2026-04-26 02:59 33.53495 -118.28027 5768 ft 264 kts 68°
2026-04-26 03:00 33.54151 -118.25962 5520 ft 265 kts 68°
2026-04-26 03:00 33.54800 -118.23898 5266 ft 264 kts 68°
2026-04-26 03:00 33.55450 -118.21868 5018 ft 256 kts 68°
2026-04-26 03:00 33.56073 -118.19922 4803 ft 244 kts 68°
2026-04-26 03:01 33.56662 -118.18078 4578 ft 235 kts 67°
2026-04-26 03:01 33.57244 -118.16258 4355 ft 232 kts 68°
2026-04-26 03:01 33.57822 -118.14462 4124 ft 229 kts 67°
2026-04-26 03:01 33.58396 -118.12675 3984 ft 222 kts 68°
2026-04-26 03:02 33.58948 -118.10953 3994 ft 226 kts 68°
2026-04-26 03:02 33.59519 -118.09174 4001 ft 228 kts 68°
2026-04-26 03:02 33.60293 -118.07555 3920 ft 223 kts 40°
2026-04-26 03:02 33.61543 -118.06515 4025 ft 220 kts 30°
2026-04-26 03:03 33.62843 -118.05500 4018 ft 223 kts 29°
2026-04-26 03:03 33.64189 -118.04574 4010 ft 225 kts 29°
2026-04-26 03:03 33.65508 -118.03570 3956 ft 226 kts 30°
2026-04-26 03:03 33.66851 -118.02579 3705 ft 226 kts 28°
2026-04-26 03:04 33.68192 -118.01660 3378 ft 224 kts 24°
2026-04-26 03:04 33.69689 -118.01412 2880 ft 215 kts 347°
2026-04-26 03:04 33.70966 -118.02111 2877 ft 202 kts 319°
2026-04-26 03:04 33.71985 -118.03277 2635 ft 203 kts 310°
2026-04-26 03:05 33.72971 -118.04479 2360 ft 197 kts 311°
2026-04-26 03:05 33.73908 -118.05611 2085 ft 185 kts 311°
2026-04-26 03:05 33.74805 -118.06697 1839 ft 180 kts 311°
2026-04-26 03:05 33.75668 -118.07740 1559 ft 171 kts 310°
2026-04-26 03:06 33.76494 -118.08738 1322 ft 167 kts 311°
2026-04-26 03:06 33.77310 -118.09726 1091 ft 166 kts 311°
2026-04-26 03:06 33.78066 -118.10636 877 ft 140 kts 309°
2026-04-26 03:06 33.78688 -118.11389 707 ft 121 kts 310°
2026-04-26 03:07 33.79277 -118.12107 579 ft 121 kts 309°
2026-04-26 03:07 33.79880 -118.12843 437 ft 121 kts 310°
2026-04-26 03:07 33.80479 -118.13547 261 ft 123 kts 312°
2026-04-26 03:07 33.81080 -118.14281 101 ft 124 kts 310°
2026-04-26 03:08 33.81661 -118.14989 52 ft 115 kts 313°
2026-04-26 03:08 33.82079 -118.15502 51 ft 35 kts 315°
2026-04-26 03:08 33.82162 -118.15658 52 ft 19 kts 272°
2026-04-26 03:08 33.82160 -118.15729 51 ft 0 kts 263°
2026-04-26 03:14 33.82131 -118.15730 53 ft 10 kts 160°
2026-04-26 03:14 33.82041 -118.15634 51 ft 18 kts 132°
2026-04-26 03:14 33.81955 -118.15578 47 ft 13 kts 182°
2026-04-26 03:14 33.81852 -118.15578 43 ft 17 kts 179°
2026-04-26 03:15 33.81727 -118.15577 38 ft 20 kts 177°
2026-04-26 03:15 33.81583 -118.15574 34 ft 20 kts 180°
2026-04-26 03:15 33.81497 -118.15614 34 ft 12 kts 249°
2026-04-26 03:15 33.81489 -118.15709 34 ft 11 kts 248°
2026-04-26 03:16 33.81416 -118.15729 32 ft 12 kts 179°
2026-04-26 03:16 33.81322 -118.15722 35 ft 14 kts 140°
2026-04-26 03:16 33.81310 -118.15645 35 ft 17 kts 90°
2026-04-26 03:16 33.81312 -118.15471 37 ft 24 kts 89°
2026-04-26 03:17 33.81295 -118.15238 38 ft 10 kts 140°
2026-04-26 03:17 33.81259 -118.15225 40 ft 7 kts 185°
2026-04-26 03:17 33.81251 -118.15227 40 ft 0 kts 191°